Flag for Argentina Weather past 2 weeks in Salta, Salta, Argentina

Now
45 °F

Clear.


Feels Like: 45 °F
Forecast: 36 / 75 °F
Wind: 2 mph from North

Location: Salta Aerodrome

Current Time: Aug 29, 2014 at 1:10:58 AM

Latest Report: Aug 29, 2014 at 12:00 AM


Visibility: 10 mi

Pressure: 30.15 "Hg

Humidity: 87%

Dew point: 41 °F

Location of SaltaLocation

Historic Weather in Salta — Graph

°F

Salta temperature yesterday

Maximum temperature yesterday: 70 °F (at 3:00 PM)
Minimum temperature yesterday: 36 °F (at 8:00 AM)
Average temperature yesterday: 53 °F

Past Weeks' High & Low Weather Summary

 TemperatureHumidityPressure
High93 °F (Aug 23, 4:00 PM)100% (Aug 14, 7:00 AM)30.42 "Hg (Aug 14, 7:00 AM)
Low34 °F (Aug 14, 4:00 AM)3% (Aug 24, 1:00 PM)29.65 "Hg (Aug 24, 3:00 PM)
Average60 °F53%30.10 "Hg
* Reported Midnight between Aug 13 and Aug 14 — Midnight between Aug 28 and Aug 29, Salta, Weather by CustomWeather, © 2014

Note: Actual official high and low records may vary slightly from our data, if they occured in-between our weather recording intervals... More about our weather records

Advertising

Salta weather history for previous 24 hours

 ConditionsComfort  
Time TempWeatherWind HumidityBarometerVisibility
12:00 AM
Aug 29
45 °FClear.2 mph87%30.15 "Hg10 mi
11:00 PM
Aug 28
50 °FClear.No wind67%30.15 "Hg10 mi
10:00 PM54 °FClear.2 mph58%30.12 "Hg10 mi
9:00 PM57 °FClear.7 mph48%30.12 "Hg10 mi
8:00 PM59 °FClear.8 mph42%30.09 "Hg10 mi
7:00 PM63 °FClear.10 mph37%30.07 "Hg10 mi
6:00 PM66 °FSunny.12 mph30%30.04 "Hg10 mi
5:00 PM68 °FSunny.9 mph30%30.04 "Hg10 mi
4:00 PM70 °FSunny.9 mph29%30.01 "Hg10 mi
3:00 PM70 °FSunny.7 mph29%30.04 "Hg10 mi
2:00 PM68 °FSunny.8 mph33%30.07 "Hg10 mi
1:00 PM63 °FSunny.3 mph42%30.09 "Hg10 mi
12:00 PM59 °FSunny.3 mph42%30.12 "Hg10 mi
11:00 AM55 °FSunny.2 mph51%30.15 "Hg10 mi
10:00 AM46 °FSunny.2 mph71%30.15 "Hg10 mi
8:00 AM36 °FSunny.No wind87%30.15 "Hg10 mi
7:00 AM37 °FSunny.No wind87%30.12 "Hg10 mi
6:00 AM39 °FClear.2 mph81%30.12 "Hg10 mi
5:00 AM39 °FClear.2 mph81%30.09 "Hg10 mi
4:00 AM39 °FClear.No wind87%30.12 "Hg10 mi
3:00 AM39 °FClear.2 mph81%30.12 "Hg10 mi
1:00 AM43 °FClear.No wind76%30.15 "Hg10 mi
Weather by CustomWeather, © 2014

See weather overviewHow to use our weather pages